#timestamp,LO_Frequency,Hit,StdDev 
1645430415.0,286046997.0,N
1645430415.9,286046997.0,N
1645430435.7,286046998.5,N
1645430455.6,286046999.2,N
1645430475.4,286046999.1,N
1645430495.3,286046999.2,N
1645430515.1,286046998.0,N
1645430516.0,286046998.0,N
1645430535.8,286046997.8,N
1645430555.7,286046996.8,N
1645430575.5,286046999.0,N
1645430595.3,286046996.7,N
1645430615.2,286046999.3,N
1645430635.0,286046998.6,N
1645430635.9,286046998.6,N
1645430655.8,286046999.4,N
1645430675.6,286046998.4,N
1645430695.4,286046998.6,N
1645430715.3,286046998.8,N
1645430735.1,286046998.3,N
1645430755.9,286047000.8,N
1645430775.7,286047000.6,N
1645430795.5,286046998.2,N
1645430815.4,286046998.3,N
1645430835.2,286046998.6,N
1645430855.1,286046996.5,Y
1645430856.0,286046996.5,P
1645430875.8,286046998.1,N
1645430895.6,286047001.1,N
1645430915.5,286047001.2,N
1645430935.3,286046998.5,N
1645430955.1,286046998.4,N
1645430975.9,286047000.5,N
1645430995.7,286046999.8,N
1645431015.6,286047000.2,N
1645431035.4,286047002.5,N
1645431055.2,286047001.8,N
1645431075.1,286047001.9,N
1645431076.0,286047001.9,N
1645431095.8,286047004.0,N
1645431115.6,286047001.8,N
1645431135.5,286047001.4,N
1645431155.3,286047002.3,N
1645431175.2,286046999.7,N
1645431195.9,286047001.9,N
1645431215.7,286047001.6,N
1645431235.6,286047001.7,N
1645431255.4,286047001.3,N
1645431275.3,286047002.3,N
1645431295.1,286047002.7,N
1645431296.0,286047002.7,N
1645431315.8,286047002.5,N
1645431335.7,286047001.7,N
1645431355.5,286047002.2,N
1645431375.4,286047002.4,N
1645431395.2,286047002.3,N
1645431415.0,286047001.5,N
1645431415.9,286047001.5,N
1645431435.8,286047001.5,N
1645431455.6,286047002.4,N
1645431475.4,286047001.6,N
1645431495.3,286047002.3,N
1645431515.1,286047001.9,N
1645431535.9,286047001.7,N
1645431555.7,286047001.7,N
1645431575.5,286047002.6,Y
1645431595.4,286047000.0,P
1645431615.2,286047002.3,N
1645431635.0,286047001.5,N
1645431636.0,286047001.5,N
1645431655.8,286047002.6,Y
1645431675.6,286047001.2,P
1645431695.5,286047000.9,P
1645431715.3,286047000.4,N
1645431735.1,286046998.9,N
1645431755.9,286046997.0,Y
1645431775.7,286046997.3,P
1645431795.6,286046996.8,N
1645431815.4,286046999.1,N
1645431835.2,286046998.5,N
1645431855.1,286046998.5,N
1645431856.0,286046998.5,N
1645431875.8,286047000.8,N
1645431895.7,286046998.2,N
1645431915.5,286046998.8,N
1645431935.3,286046998.7,N
1645431955.2,286046998.2,N
1645431975.0,286046998.1,N
1645431975.9,286046998.1,N
1645431995.8,286046998.4,N
1645432015.6,286046999.3,N
1645432035.4,286046999.0,N
1645432055.3,286046996.5,Y
1645432075.1,286047000.8,P
1645432095.8,286046998.6,N
1645432115.7,286047000.1,N
1645432135.5,286047000.1,N
1645432155.4,286047000.3,N
1645432175.2,286047000.0,N
1645432195.0,286046998.6,N
1645432195.9,286046998.6,N
1645432215.8,286047001.0,N
1645432235.6,286047000.8,N
1645432255.4,286046999.1,N
1645432275.3,286046998.1,N
1645432295.1,286046998.8,N
1645432315.9,286046999.5,N
1645432335.7,286046998.7,N
1645432355.5,286046999.0,N
1645432375.4,286046997.3,Y
1645432395.2,286046997.3,P
1645432415.1,286046997.7,N
1645432416.0,286046997.7,N
1645432435.8,286046997.2,Y
1645432455.6,286046998.1,P
1645432475.5,286046998.5,P
1645432495.3,286046999.9,N
1645432515.2,286046999.7,N
1645432535.9,286047002.4,N
1645432555.7,286047001.9,N
1645432575.6,286047002.3,N
1645432595.4,286047000.1,N
1645432615.2,286047002.8,N
1645432635.1,286047000.0,N
1645432636.0,286047000.0,N
1645432655.8,286047000.0,N
1645432675.7,286047002.4,N
1645432695.5,286047002.8,N
1645432715.3,286047002.4,N
1645432735.2,286047002.8,N
1645432755.0,286047002.7,N
1645432755.9,286047002.7,N
1645432775.8,286047001.6,N
1645432795.6,286047002.6,N
1645432815.4,286047000.2,N
1645432835.3,286046998.2,N
1645432855.1,286046998.1,N
1645432875.8,286047001.1,N
1645432895.7,286046999.4,N
1645432915.5,286046998.5,N
1645432935.4,286047000.8,N
1645432955.2,286047000.8,N
1645432975.0,286047000.3,N
1645432975.9,286047000.3,N
1645432995.8,286047000.1,N
1645433015.6,286047002.6,N
1645433035.4,286046999.7,N
1645433055.3,286047000.3,N
1645433075.1,286046999.8,N
1645433095.9,286047000.8,N
1645433115.7,286047000.7,N
1645433135.5,286047000.5,N
1645433155.4,286046999.9,N
1645433175.2,286047002.3,N
1645433195.1,286047001.8,N
1645433196.0,286047001.8,N
1645433215.8,286047004.0,N
1645433235.6,286047003.7,N
1645433255.5,286047003.5,N
1645433275.3,286047004.1,N
1645433295.1,286047004.0,N
1645433315.9,286047002.0,N
1645433335.7,286047000.3,N
1645433355.6,286047000.1,N
1645433375.4,286047002.2,N
1645433395.2,286047002.2,N
1645433415.1,286047003.5,N
1645433416.0,286047003.5,N
1645433435.8,286047004.0,N
1645433455.7,286047002.2,N
1645433475.5,286047004.2,N
1645433495.3,286047001.6,N
1645433515.2,286047001.3,N
1645433535.9,286047004.1,N
1645433555.7,286047001.6,N
1645433575.6,286047003.6,N
1645433595.4,286047003.7,N
1645433615.3,286047001.9,N
1645433635.1,286047001.7,N
1645433636.0,286047001.7,N
1645433655.8,286047001.4,N
1645433675.7,286047001.7,N
1645433695.5,286047002.5,N
1645433715.3,286047001.8,N
1645433735.2,286047001.4,N
1645433755.0,286047001.9,N
1645433755.9,286047001.9,N
1645433775.8,286047001.7,N
1645433795.6,286047006.0,Y
1645433815.4,286047001.2,P
1645433835.3,286046998.1,P
1645433855.1,286046998.2,N
1645433875.9,286046999.0,N
1645433895.7,286047000.8,N
1645433915.5,286047000.3,N
1645433935.4,286046998.8,N
1645433955.2,286046999.3,N
1645433975.0,286046999.6,N
1645433975.9,286046999.6,N
1645433995.8,286046997.7,N
